Orbital Elements
Epoch 2023 Sept. 13.0 TT = JDT 2460200.5
T 2023 Aug. 30.94504 TT MPCW
q 1.3482788 (2000.0) P Q
n 0.13843578 Peri. 27.46035 -0.93830145 +0.34558687
a 3.7008699 Node 172.72295 -0.33277853 -0.89236273
e 0.6356860 Incl. 5.73321 -0.09406830 -0.29027312
P 7.12
From 117 observations 2009 Apr. 24-2016 July 3, mean residual 0".5.
|